#timestamp,LO_Frequency,Hit,StdDev 
1569632415.2,286046999.1,N
1569632435.9,286047002.6,N
1569632455.7,286047002.8,N
1569632475.6,286047001.9,N
1569632495.4,286047000.7,N
1569632515.3,286047000.3,N
1569632535.1,286047000.3,N
1569632536.0,286047000.3,N
1569632555.8,286046996.5,N
1569632575.7,286046995.8,N
1569632595.5,286046998.7,N
1569632615.3,286046997.5,N
1569632635.2,286046995.2,N
1569632655.0,286046992.8,N
1569632655.9,286046992.8,N
1569632675.8,286046990.1,N
1569632695.6,286046992.7,N
1569632715.5,286046996.3,N
1569632735.3,286046992.9,N
1569632755.1,286046993.7,N
1569632775.9,286046996.8,N
1569632795.7,286047000.9,N
1569632815.5,286046999.7,N
1569632835.4,286047004.4,N
1569632855.2,286047001.8,N
1569632875.1,286047001.7,N
1569632876.0,286047001.7,N
1569632895.8,286047005.4,N
1569632915.6,286047001.5,N
1569632935.5,286046998.3,N
1569632955.3,286046994.7,N
1569632975.1,286046997.2,N
1569632995.9,286046999.5,N
1569633015.7,286047002.8,N
1569633035.5,286047004.0,N
1569633055.4,286047005.7,N
1569633075.2,286047006.1,N
1569633095.1,286047006.4,N
1569633096.0,286047006.4,N
1569633115.8,286047008.7,N
1569633135.6,286047008.3,N
1569633155.5,286047011.8,N
1569633175.3,286047008.8,N
1569633195.1,286047010.1,N
1569633215.9,286047010.5,N
1569633235.7,286047010.7,N
1569633255.6,286047008.4,N
1569633275.4,286047010.2,N
1569633325.3,286047013.1,E
1569633335.2,286047006.2,N
1569633355.0,286047003.7,P
1569633355.9,286047003.7,N
1569633375.8,286047004.0,Y
1569633395.6,286047000.2,P
1569633415.4,286047000.0,N
1569633435.3,286047000.3,N
1569633455.1,286047004.3,N
1569633475.8,286047001.4,N
1569633495.7,286047001.7,N
1569633515.5,286047003.9,N
1569633535.4,286047004.6,N
1569633555.2,286047004.1,N
1569633575.0,286047004.4,N
1569633575.9,286047004.4,N
1569633595.8,286047001.2,N
1569633615.6,286046998.8,N
1569633635.4,286047000.2,N
1569633655.3,286046999.8,N
1569633675.1,286047001.5,N
1569633695.9,286047003.7,N
1569633715.7,286047005.1,N
1569633735.5,286047004.9,N
1569633755.4,286047002.4,N
1569633775.2,286047003.4,N
1569633795.0,286047005.3,N
1569633795.9,286047005.3,N
1569633815.8,286047008.5,Y
1569633835.6,286047008.6,P
1569633855.5,286047011.0,P
1569633875.3,286047016.1,P
1569633895.1,286047016.6,Y
1569633915.9,286047006.5,P
1569633935.7,286047009.8,P
1569633955.5,286047011.2,P
1569633975.4,286047016.3,Y
1569633995.2,286047006.7,P
1569634015.1,286047010.6,P
1569634016.0,286047010.6,P
1569634035.8,286047007.3,Y
1569634055.6,286046996.3,P
1569634075.5,286046997.4,N
1569634095.3,286046999.5,N
1569634115.1,286046992.3,N
1569634135.9,286046991.8,N
1569634155.7,286046991.7,N
1569634175.6,286046993.2,N
1569634195.4,286046993.9,N
1569634215.2,286046999.4,N
1569634235.1,286047002.4,N
1569634236.0,286047002.4,N
1569634255.8,286047007.0,N
1569634275.6,286047001.4,N
1569634295.5,286047000.6,N
1569634315.3,286046998.2,N
1569634335.2,286046993.4,N
1569634355.9,286046990.4,N
1569634375.7,286046989.0,N
1569634395.6,286046988.6,N
1569634415.4,286046992.3,N
1569634435.2,286046996.4,N
1569634455.1,286046994.7,N
1569634456.0,286046994.7,N
1569634475.8,286046996.3,N
1569634495.7,286046996.6,N
1569634515.5,286047000.3,N
1569634535.3,286047006.6,N
1569634555.2,286047011.6,N
1569634575.9,286047012.5,N
1569634595.7,286047017.3,N
1569634615.6,286047022.9,Y
1569634635.4,286047028.0,P
1569634655.2,286047023.8,N
1569634675.1,286047021.1,N
1569634676.0,286047021.1,N
1569634695.8,286047021.7,N
1569634715.7,286047021.5,N
1569634735.5,286047025.7,N
1569634755.3,286047028.8,Y
1569634775.2,286047006.5,P
1569634795.0,286047008.2,N
1569634795.9,286047008.2,N
1569634815.8,286047008.4,N
1569634835.6,286047010.4,N
1569634855.4,286047005.5,N
1569634875.3,286047010.4,N
1569634895.1,286047004.9,N
1569634915.8,286047008.0,N
1569634935.7,286047009.9,N
1569634955.5,286047007.0,N
1569634975.4,286047003.9,N
1569634995.2,286047004.1,N
1569635015.0,286047001.4,N
1569635015.9,286047001.4,N
1569635035.8,286046990.3,N
1569635055.6,286046987.5,N
1569635075.4,286046980.5,N
1569635095.3,286046978.4,N
1569635115.1,286046976.2,N
1569635135.9,286046976.9,N
1569635155.7,286046966.7,N
1569635175.5,286046970.0,N
1569635195.4,286046964.7,N
1569635215.2,286046962.4,N
1569635235.1,286046964.1,N
1569635236.0,286046964.1,N
1569635255.8,286046961.4,N
1569635275.6,286046961.8,N
1569635295.5,286046960.5,N
1569635315.3,286046957.7,N
1569635335.1,286046949.1,N
1569635355.9,286046948.4,N
1569635375.7,286046946.6,N
1569635395.6,286046943.1,N
1569635415.4,286046940.3,N
1569635435.2,286046937.3,N
1569635455.1,286046940.7,N
1569635456.0,286046940.7,N
1569635475.8,286046940.1,N
1569635495.7,286046941.8,N
1569635515.5,286046935.0,Y
1569635535.3,286046964.5,P
1569635555.2,286046972.3,P
1569635575.0,286046975.6,P
1569635575.9,286046975.6,Y
1569635595.8,286047001.9,P
1569635615.6,286047003.9,N
1569635635.4,286047002.9,N
1569635655.3,286047006.9,N
1569635675.1,286047008.4,N
1569635695.8,286047007.7,N
1569635715.7,286047011.8,N
1569635735.5,286047010.6,N
1569635755.4,286047010.7,N
1569635775.2,286047010.2,N
1569635795.0,286047011.1,N
1569635795.9,286047011.1,N
1569635815.8,286047017.1,N
1569635835.6,286047020.4,N
1569635855.4,286047012.5,N
1569635875.3,286047015.1,N
1569635895.1,286047014.6,N
1569635915.9,286047011.6,N
1569635935.7,286047017.2,N
1569635955.5,286047010.9,N
1569635975.4,286047008.9,N
1569635995.2,286047002.9,N
